EN

Hourly Weather Acebo

Today, 27 November, Friday

Time Temperature Precipitation Wind Pressure Humidity
00:00 +7°C° 0 mm 1 mps 691 mmHg 91%
01:00 +7°C° 0.1 mm 1 mps 691 mmHg 91%
02:00 +8°C° 0.1 mm 1 mps 691 mmHg 90%
03:00 +8°C° 0.1 mm 1 mps 691 mmHg 90%
04:00 +8°C° 0.1 mm 1 mps 691 mmHg 90%
05:00 +7°C° 0.1 mm 1 mps 691 mmHg 90%
06:00 +6°C° 0.1 mm 2 mps 691 mmHg 90%
07:00 +7°C° 0 mm 2 mps 691 mmHg 89%
08:00 +7°C° 0 mm 2 mps 691 mmHg 88%
09:00 +7°C° 0 mm 2 mps 691 mmHg 86%
10:00 +8°C° 0 mm 2 mps 690 mmHg 83%
11:00 +10°C° 0 mm 2 mps 690 mmHg 79%
12:00 +12°C° 0 mm 2 mps 690 mmHg 75%
13:00 +12°C° 0.2 mm 2 mps 690 mmHg 74%
14:00 +13°C° 0.2 mm 2 mps 690 mmHg 72%
15:00 +13°C° 0.2 mm 1 mps 689 mmHg 70%
16:00 +12°C° 0.1 mm 1 mps 689 mmHg 75%
17:00 +10°C° 0.1 mm 1 mps 689 mmHg 79%
18:00 +9°C° 0.1 mm 1 mps 689 mmHg 84%
19:00 +8°C° 0 mm 1 mps 689 mmHg 85%
20:00 +8°C° 0 mm 1 mps 689 mmHg 87%
21:00 +6°C° 0 mm 0 mps 689 mmHg 88%
22:00 +7°C° 0 mm 1 mps 689 mmHg 89%
23:00 +7°C° 0 mm 1 mps 689 mmHg 89%

Tomorrow, 28 November, Saturday

Time Temperature Precipitation Wind Pressure Humidity
00:00 +7°C° 0 mm 1 mps 689 mmHg 90%
01:00 +6°C° 0 mm 1 mps 689 mmHg 90%
02:00 +6°C° 0 mm 1 mps 689 mmHg 90%
03:00 +6°C° 0 mm 1 mps 688 mmHg 90%
04:00 +5°C° 0 mm 0 mps 688 mmHg 91%
05:00 +4°C° 0 mm 0 mps 688 mmHg 91%
06:00 +4°C° 0 mm 0 mps 688 mmHg 91%
07:00 +5°C° 0 mm 0 mps 689 mmHg 89%
08:00 +6°C° 0 mm 0 mps 689 mmHg 87%
09:00 +7°C° 0 mm 0 mps 689 mmHg 84%
10:00 +9°C° 0 mm 1 mps 689 mmHg 81%
11:00 +10°C° 0 mm 1 mps 689 mmHg 78%
12:00 +10°C° 0 mm 2 mps 689 mmHg 75%
13:00 +12°C° 0.1 mm 2 mps 689 mmHg 75%
14:00 +11°C° 0.1 mm 3 mps 689 mmHg 74%
15:00 +11°C° 0.1 mm 3 mps 689 mmHg 74%
16:00 +10°C° 0.1 mm 3 mps 689 mmHg 80%
17:00 +8°C° 0.1 mm 3 mps 689 mmHg 85%
18:00 +7°C° 0.1 mm 3 mps 689 mmHg 91%
19:00 +7°C° 0.1 mm 3 mps 689 mmHg 92%
20:00 +7°C° 0.1 mm 3 mps 690 mmHg 92%
21:00 +7°C° 0.1 mm 3 mps 690 mmHg 92%
22:00 +7°C° 0.1 mm 3 mps 690 mmHg 92%
23:00 +7°C° 0.1 mm 3 mps 691 mmHg 92%

Day after tomorrow, 29 November, Sunday

Time Temperature Precipitation Wind Pressure Humidity
00:00 +7°C° 0.1 mm 3 mps 691 mmHg 92%
01:00 +7°C° 0.4 mm 3 mps 691 mmHg 92%
02:00 +7°C° 0.4 mm 3 mps 691 mmHg 93%
03:00 +7°C° 0.4 mm 3 mps 691 mmHg 93%
04:00 +7°C° 1.3 mm 3 mps 692 mmHg 94%
05:00 +6°C° 1.3 mm 4 mps 692 mmHg 94%
06:00 +6°C° 1.3 mm 4 mps 692 mmHg 94%
07:00 +7°C° 0.3 mm 3 mps 692 mmHg 93%
08:00 +7°C° 0.3 mm 3 mps 693 mmHg 93%
09:00 +7°C° 0.3 mm 3 mps 693 mmHg 92%
10:00 +8°C° 0.1 mm 3 mps 694 mmHg 90%
11:00 +9°C° 0.1 mm 3 mps 694 mmHg 87%
12:00 +8°C° 0.1 mm 4 mps 694 mmHg 84%
13:00 +9°C° 0.2 mm 3 mps 694 mmHg 84%
14:00 +10°C° 0.2 mm 3 mps 694 mmHg 84%
15:00 +10°C° 0.2 mm 3 mps 694 mmHg 84%
16:00 +9°C° 2.3 mm 3 mps 694 mmHg 88%
17:00 +8°C° 2.3 mm 2 mps 694 mmHg 92%
18:00 +9°C° 2.3 mm 1 mps 694 mmHg 96%
19:00 +9°C° 2.1 mm 1 mps 695 mmHg 96%
20:00 +9°C° 2.1 mm 1 mps 695 mmHg 96%
21:00 +9°C° 2.1 mm 1 mps 696 mmHg 96%
22:00 +9°C° 0.4 mm 1 mps 696 mmHg 95%
23:00 +9°C° 0.4 mm 1 mps 696 mmHg 95%

30 November, Monday

Time Temperature Precipitation Wind Pressure Humidity
00:00 +9°C° 0.4 mm 1 mps 696 mmHg 94%
01:00 +9°C° 0 mm 1 mps 696 mmHg 93%
02:00 +9°C° 0 mm 1 mps 696 mmHg 92%
03:00 +8°C° 0 mm 2 mps 696 mmHg 92%
04:00 +8°C° 0.2 mm 2 mps 696 mmHg 91%
05:00 +8°C° 0.2 mm 2 mps 696 mmHg 91%
06:00 +8°C° 0.2 mm 2 mps 696 mmHg 91%
07:00 +8°C° 0.1 mm 2 mps 697 mmHg 90%
08:00 +10°C° 0.1 mm 1 mps 697 mmHg 89%
09:00 +10°C° 0.1 mm 1 mps 697 mmHg 87%
10:00 +10°C° 0 mm 2 mps 697 mmHg 84%
11:00 +12°C° 0 mm 2 mps 697 mmHg 81%
12:00 +12°C° 0 mm 2 mps 698 mmHg 77%
13:00 +13°C° 0.1 mm 2 mps 697 mmHg 76%
14:00 +13°C° 0.1 mm 2 mps 697 mmHg 74%
15:00 +13°C° 0.1 mm 2 mps 697 mmHg 72%
16:00 +12°C° 0 mm 2 mps 697 mmHg 76%
17:00 +10°C° 0 mm 2 mps 697 mmHg 80%
18:00 +9°C° 0 mm 1 mps 697 mmHg 84%
19:00 +9°C° 0 mm 1 mps 697 mmHg 84%
20:00 +9°C° 0 mm 1 mps 697 mmHg 85%
21:00 +8°C° 0 mm 1 mps 697 mmHg 85%
22:00 +8°C° 0 mm 1 mps 698 mmHg 84%
23:00 +8°C° 0 mm 1 mps 698 mmHg 84%

1 December, Tuesday

Time Temperature Precipitation Wind Pressure Humidity
00:00 +8°C° 0 mm 1 mps 698 mmHg 83%
01:00 +8°C° 0 mm 1 mps 698 mmHg 84%
02:00 +7°C° 0 mm 1 mps 698 mmHg 85%
03:00 +6°C° 0 mm 2 mps 698 mmHg 85%
04:00 +7°C° 0 mm 1 mps 698 mmHg 85%
05:00 +7°C° 0 mm 1 mps 698 mmHg 85%
06:00 +7°C° 0 mm 1 mps 697 mmHg 85%
07:00 +8°C° 0 mm 1 mps 698 mmHg 84%
08:00 +8°C° 0 mm 1 mps 698 mmHg 83%
09:00 +9°C° 0 mm 1 mps 698 mmHg 81%
10:00 +10°C° 0 mm 1 mps 698 mmHg 77%
11:00 +12°C° 0 mm 2 mps 699 mmHg 73%
12:00 +13°C° 0 mm 2 mps 699 mmHg 68%
13:00 +13°C° 0 mm 2 mps 698 mmHg 68%
14:00 +13°C° 0 mm 2 mps 698 mmHg 67%
15:00 +14°C° 0 mm 2 mps 698 mmHg 67%
16:00 +12°C° 0 mm 2 mps 698 mmHg 73%
17:00 +9°C° 0 mm 2 mps 697 mmHg 80%
18:00 +9°C° 0 mm 1 mps 697 mmHg 86%
19:00 +9°C° 0 mm 1 mps 698 mmHg 86%
20:00 +8°C° 0 mm 1 mps 698 mmHg 87%
21:00 +8°C° 0 mm 1 mps 698 mmHg 88%
22:00 +8°C° 0 mm 1 mps 698 mmHg 87%
23:00 +8°C° 0 mm 1 mps 698 mmHg 87%

2 December, Wednesday

Time Temperature Precipitation Wind Pressure Humidity
00:00 +8°C° 0 mm 1 mps 698 mmHg 87%
01:00 +7°C° 0 mm 1 mps 698 mmHg 88%
02:00 +7°C° 0 mm 1 mps 697 mmHg 89%
03:00 +7°C° 0 mm 1 mps 697 mmHg 89%
04:00 +7°C° 0 mm 1 mps 697 mmHg 90%
05:00 +6°C° 0 mm 1 mps 697 mmHg 90%
06:00 +6°C° 0 mm 1 mps 696 mmHg 91%
07:00 +7°C° 0 mm 1 mps 696 mmHg 88%
08:00 +8°C° 0 mm 1 mps 696 mmHg 86%
09:00 +8°C° 0 mm 1 mps 696 mmHg 84%
10:00 +10°C° 0 mm 1 mps 696 mmHg 78%
11:00 +12°C° 0 mm 1 mps 696 mmHg 72%
12:00 +13°C° 0 mm 2 mps 696 mmHg 66%
13:00 +13°C° 0 mm 1 mps 695 mmHg 65%
14:00 +14°C° 0 mm 1 mps 695 mmHg 65%
15:00 +14°C° 0 mm 1 mps 694 mmHg 65%
16:00 +12°C° 0 mm 1 mps 694 mmHg 73%
17:00 +10°C° 0 mm 1 mps 693 mmHg 80%
18:00 +9°C° 0 mm 1 mps 693 mmHg 88%
19:00 +8°C° 0 mm 1 mps 693 mmHg 89%
20:00 +8°C° 0 mm 1 mps 693 mmHg 89%
21:00 +7°C° 0 mm 1 mps 693 mmHg 90%
22:00 +7°C° 0 mm 1 mps 692 mmHg 90%
23:00 +7°C° 0 mm 1 mps 692 mmHg 90%
Show more

We Need Your Consent

Meteoprog and our Service Providers may store and access personal data such as cookies, device identifiers or other similar technologies on your device and process such data to personalise content and ads, as well as provide social media features and to analyse the traffic.

  • Store and/or access information on your device

    Cookies, device identifiers or other information can be stored or accessed on your device for the purposes indicated above.

  • Personalised ads and content, ad and content measurement, audience insights, and products development

    Ads and content can be personalised based on a profile. More data can be added to better personalise ads and content. Ad and content performance can be measured. Insights about the audience who saw the ads and content can be derived. Such data can be used to develop or improve user’s experience, systems and software.

By clicking ‘I Agree’ you will allow the use of indicated cookies, device identifiers, web beacons or other similar technologies. Your settings can be changed in the browser on your device.

For certain purposes, legitimate interests may be relied on, rather than consent. You can read more about this in our Privacy and Cookie Policy.